Погода в Джаяпуре

Индонезия     2°32′08″S   140°42′21″E
темп.,
°C
ветер,
м/с
пор.,
м/с
влажн.,
%
обл.,
%
осадки,
мм/ч
давл.,
гПа
погр.,
м
20 января, чт
чт2000:00+25з3488100 0.9 1006357
03:00+24з4690100 3.7 1005381
06:00+25з468999 1.6 1007399
09:00+26зсз468447 2.2 1008671
12:00+28зсз577496 0.6 1005928
15:00+28сз687379 0.8 1003956
18:00+26зсз5784100 0.3 1005581
21:00+26зсз5787100 1.1 1008470
21 января, пт
пт2100:00+25зсз4691100 3.7 1007358
03:00+25з3490100 8.1 1006262
06:00+24юз228993 3.5 1007128
09:00+26з238368 4.8 1008417
12:00+28сз577059 0.4 10061022
15:00+28сз677496 0.5 1003897
18:00+26зсз5684100 0.0 1005432
21:00+26зсз4586100 0.1 1007386
22 января, сб
сб2200:00+26з4587100 3.4 1006275
03:00+25з3486100 4.6 1004316
06:00+25зюз2286100 0.0 1006303
09:00+28ююз0173100 0.0 1007579
12:00+27ссз3384100 0.6 1005414
15:00+28сз3274100 1.6 1003573
18:00+26зсз228488 0.7 1005236
21:00+26з2286100 3.4 1007182
23 января, вс
вс2300:00+25зюз3490100 5.6 1006205
03:00+24ю3495100 13.3 1005203
06:00+24ю2392100 5.1 1007182
09:00+24ююз2293100 8.5 1009171
12:00+25юз1289100 0.4 1006269
15:00+25ююз1187100 0.4 1004202
18:00+25ссв0086100 0.3 1006129
21:00+25ююв2289100 1.6 1008181
24 января, пн
пн2400:00+24ююв2295100 2.1 1007140
03:00+24ю3491100 2.8 1005136
06:00+24ю3391100 0.1 1006140
09:00+25ю238995 0.1 1007167
12:00+28всв447469 0.1 1006811
15:00+27всв678215 0.6 1004782
18:00+26в6887100 3.4 1006651
21:00+26всв798998 10.5 1008727